This demonstration page uses our WeatherBlox Daily Observations layout. Learn more.

Left ArrowRight Arrow

39.08367, -84.50855

Hourly Observations for September 1, 2015

Temp ( °F °C ) Dew Point ( °F °C ) Humidity (%) Winds ( mph kmh ) Pressure ( in mb ) Visibility ( mi km ) Precip ( " mm )
12:53 am 00:53 Mostly Clear with Mist and Fog 68 20 68 20 100 100 Calm 30.10 1019 5 8 0.00 0.00
1:28 am 01:28 Clear with Mist and Fog 66 19 66 19 100 100 Calm 30.09 1019 2 3 0.00 0.00
1:42 am 01:42 Clear with Mist and Fog 66 19 66 19 100 100 Calm 30.09 1019 3 5 0.00 0.00
1:53 am 01:53 Clear with Mist and Fog 67 19.4 67 19.4 100 100 Calm 30.10 1019 6 10 0.00 0.00
2:20 am 02:20 Clear with Mist and Fog 66 19 66 19 100 100 Calm 30.09 1019 2 3 0.00 0.00
2:31 am 02:31 Clear with Mist and Fog 67 19.4 66 18.9 97 97 Calm 30.09 1019 4 6 0.00 0.00
2:53 am 02:53 Clear with Mist and Fog 67 19.4 67 19.4 100 100 Calm 30.09 1019 3 5 0.00 0.00
3:07 am 03:07 Clear with Mist and Fog 67 19.4 67 19.4 100 100 Calm 30.09 1019 2 3 0.00 0.00
3:23 am 03:23 Clear with Mist and Fog 67 19.4 67 19.4 100 100 Calm 30.09 1019 3 4 0.00 0.00
3:30 am 03:30 Clear with Mist and Fog 66 19 66 19 100 100 Calm 30.09 1019 4 6 0.00 0.00
3:48 am 03:48 Clear with Mist and Fog 66 19 66 19 100 100 Calm 30.09 1019 3 4 0.00 0.00
3:53 am 03:53 Clear with Mist and Fog 66 18.9 66 18.9 100 100 Calm 30.09 1019 2 3 0.00 0.00
4:07 am 04:07 Clear with Mist and Fog 66 18.9 66 18.9 100 100 Calm 30.09 1019 3 5 0.00 0.00
4:19 am 04:19 Clear with Mist and Fog 66 18.9 66 18.9 100 100 Calm 30.09 1019 3 4 0.00 0.00
4:28 am 04:28 Clear with Mist and Fog 66 19 66 19 100 100 Calm 30.09 1019 4 6 0.00 0.00
4:40 am 04:40 Clear with Mist and Fog 66 19 66 19 100 100 Calm 30.09 1019 3 4 0.00 0.00
4:53 am 04:53 Clear with Mist and Fog 66 18.9 66 18.9 100 100 Calm 30.10 1019 3 5 0.00 0.00
4:58 am 04:58 Clear with Mist and Fog 64 18 64 18 100 100 Calm 30.09 1019 2 3 0.00 0.00
5:07 am 05:07 Clear with Fog 66 18.9 66 18.9 100 100 Calm 30.09 1019 1 1 0.00 0.00
5:20 am 05:20 Mostly Cloudy with Fog 64 18 64 18 100 100 Calm 30.09 1019 1 1 0.00 0.00
5:35 am 05:35 Mostly Cloudy with Fog 65 18.3 65 18.3 100 100 Calm 30.09 1019 0 0 0.00 0.00
5:46 am 05:46 Clear with Mist and Fog 66 19 66 19 100 100 Calm 30.09 1019 1 1 0.00 0.00
5:53 am 05:53 Clear with Mist and Fog 65 18.3 65 18.3 100 100 Calm 30.11 1020 2 2 0.00 0.00
6:00 am 06:00 Clear with Mist and Fog 64 18 64 18 100 100 Calm 30.09 1019 3 5 0.00 0.00
6:29 am 06:29 Clear with Mist and Fog 65 18.3 65 18.3 100 100 Calm 30.09 1019 2 3 0.00 0.00
6:40 am 06:40 Clear with Mist and Fog 64 18 64 18 100 100 Calm 30.12 1020 1 1 0.00 0.00
6:46 am 06:46 Clear with Mist and Fog 66 18.9 66 18.9 100 100 Calm 30.12 1020 2 3 0.00 0.00
6:53 am 06:53 Clear with Mist and Fog 65 18.3 65 18.3 100 100 Calm 30.13 1020 4 6 0.00 0.00
7:13 am 07:13 Partly Cloudy with Mist and Fog 65 18.3 65 18.3 100 100 Calm 30.12 1020 3 4 0.00 0.00
7:24 am 07:24 Partly Cloudy with Mist and Fog 64 18 64 18 100 100 Calm 30.12 1020 4 6 0.00 0.00
7:53 am 07:53 Sunny with Mist and Fog 66 18.9 66 18.9 100 100 Calm 30.15 1021 4 6 0.00 0.00
8:53 am 08:53 Sunny with Mist and Fog 71 21.7 69 20.6 94 94 Calm 30.15 1021 4 6 0.00 0.00
9:53 am 09:53 Sunny 75 23.9 70 21.1 84 84 Calm 30.14 1021 8 13 0.00 0.00
10:53 am 10:53 Sunny 79 26.1 70 21.1 74 74 Calm 30.14 1021 10 16 0.00 0.00
11:53 am 11:53 Sunny 83 28.3 69 20.6 63 63 ESE 3 6 30.14 1021 10 16 0.00 0.00
12:53 pm 12:53 Partly Cloudy 85 29.4 68 20 57 57 S 7 11 30.12 1020 10 16 0.00 0.00
1:53 pm 13:53 Mostly Cloudy 84 28.9 68 20 59 59 SSE 8 13 30.10 1019 10 16 0.00 0.00
2:53 pm 14:53 Mostly Cloudy 86 30 68 20 55 55 SW 3 6 30.09 1019 10 16 0.00 0.00
3:53 pm 15:53 Partly Cloudy 87 30.6 66 18.9 50 50 SSW 12 19 30.07 1018 10 16 0.00 0.00
4:53 pm 16:53 Partly Cloudy 87 30.6 66 18.9 50 50 S 7 11 30.06 1018 10 16 0.00 0.00
5:53 pm 17:53 Mostly Sunny 86 30 68 20 55 55 SSW 5 7 30.05 1018 10 16 0.00 0.00
6:53 pm 18:53 Mostly Sunny 85 29.4 65 18.3 51 51 SW 8 13 30.06 1018 10 16 0.00 0.00
7:53 pm 19:53 Sunny 78 25.6 70 21.1 76 76 S 5 7 30.07 1018 10 16 0.00 0.00
8:53 pm 20:53 Clear 75 23.9 69 20.6 82 82 Calm 30.08 1019 10 16 0.00 0.00
9:53 pm 21:53 Clear 72 22.2 68 20 87 87 NE 3 6 30.09 1019 10 16 0.00 0.00
10:53 pm 22:53 Clear with Mist and Fog 71 21.7 68 20 90 90 Calm 30.10 1019 6 10 0.00 0.00
11:53 pm 23:53 Clear with Mist and Fog 69 20.6 68 20 96 96 Calm 30.10 1019 5 8 0.00 0.00

Powered by AerisWeather